Location: Unspecified
(38.7273°N, 77.0677°W)
Time: 05:27:47
(UTC-04:00)

CAS-4B - Pass Details

Date: 21 September 2021
Orbit: 529 x 541 km, 43.0° (Epoch: 19 October)

Event Time Altitude Azimuth Distance (km) Brightness Sun altitude
Exits shadow 05:13:03 45° 190° (S) 727 ? -20.4°
Maximum altitude 05:13:48 52° 151° (SSE) 657 ? -20.3°
Drops below altitude 10° 05:17:44 10° 75° (ENE) 1,770 ? -19.6°
Sets 05:20:00 0° 71° (ENE) 2,662 ? -19.1°
